Welcome to the New NWS' Forecast!
Most changes are behind the scenes, but click here for differences you might notice.
Latest weather observations around

Houston Intercontinental Airport (KIAH)

Using English Units (Switch to International System of Units)
Date/ Time (CST) Wind (mph) Vis. (mi) Weather Sky Cond. Temp (°F) Rel. Humidity Wind Chill (°F) Heat Index (°F) Pressure Precip. (in)
Air Dwpt 6 hour Altimeter (inHg) Sea level (inHg) 1 hr 3 hr 6 hr
Max Min
Nov 16 15:53 SW 5 10 Mostly Clear FEW060 69 39     33%     30.13 30.14      
Nov 16 14:53 3 10 Clear CLR 69 40     35%     30.14 30.14      
Nov 16 13:53 3 10 Clear CLR 68 41     37%     30.16 30.16      
Nov 16 12:53 WSW 6 10 Clear CLR 68 42     39%     30.18 30.18      
Nov 16 11:53 SW 8 10 Clear   67 44     44%     30.22 30.22      
Nov 16 10:53 WSW 7 10 Mostly Clear FEW250 63 45     52%     30.25 30.25      
Nov 16 09:53 W 7 10 Mostly Clear FEW250 59 45     60%     30.27 30.27      
Nov 16 08:53 WSW 3 10 Mostly Clear FEW250 52 45     77%     30.27 30.27      
Nov 16 07:53 Calm 10 Mostly Clear FEW250 44 43     96%     30.25 30.25      
Nov 16 06:53 Calm 10 Partly Cloudy SCT250 38 38     100%     30.24 30.24      
Nov 16 05:53 Calm 10 Clear   39 39     100%     30.22 30.22      
Nov 16 04:53 Calm 10 Mostly Cloudy BKN230 39 39     100%     30.21 30.21      
Nov 16 03:53 Calm 10 Mostly Cloudy BKN250 39 39     100%     30.21 30.21      
Nov 16 02:53 Calm 10 Partly Cloudy SCT250 39 39     100%     30.22 30.22      
Nov 16 01:53 Calm 10 Partly Cloudy SCT250 40 40     100%     30.22 30.22      
Nov 16 00:53 Calm 10 Mostly Cloudy BKN250 42 41     96%     30.22 30.22      
Nov 15 23:53 Calm 10 Mostly Cloudy BKN250 46 40     79%     30.23 30.23      
Nov 15 22:53 S 5 10 Mostly Cloudy BKN250 48 40     73% 46   30.24 30.24      
Nov 15 21:53 S 5 10 Mostly Cloudy BKN250 49 40     71% 47   30.25 30.25      
Nov 15 20:53 S 6 10 Mostly Cloudy BKN250 48 40     73% 45   30.25 30.25      
Nov 15 19:53 S 6 10 Mostly Cloudy BKN250 48 39     71% 45   30.25 30.24      
Nov 15 18:53 SSW 3 10 Mostly Cloudy BKN250 47 40     76% 46   30.23 30.23      
Nov 15 17:53 Calm 10 Mostly Cloudy BKN250 48 39     71%     30.23 30.23      
Nov 15 16:53 Calm 10 Mostly Cloudy FEW200 BKN250 58 34     40%     30.21 30.21      
Nov 15 15:53 SW 3 10 Mostly Cloudy FEW200 BKN250 59 31     34%     30.21 30.22      
Nov 15 14:53 3 10 Partly Cloudy FEW200 SCT250 60 30     32%     30.22 30.22      
Nov 15 13:53 5 10 Partly Cloudy SCT250 59 29     32%     30.24 30.24      
Nov 15 12:53 3 10 Mostly Clear FEW250 58 29     33%     30.27 30.27      
Nov 15 11:53 5 10 Mostly Clear FEW250 55 27     34%     30.32 30.32      
Nov 15 10:53 Calm 10 Mostly Clear FEW250 52 26     36%     30.36 30.36      
Nov 15 09:53 SSE 3 10 Mostly Clear FEW250 49 29     46% 48   30.37 30.37      
Nov 15 08:53 Calm 10 Mostly Clear FEW250 44 30     58%     30.36 30.36      
Nov 15 07:53 Calm 10 Clear CLR 38 34     85%     30.35 30.35      
Nov 15 06:53 Calm 10 Mostly Clear FEW250 31 30     96%     30.35 30.35      
Nov 15 05:53 Calm 10 Clear CLR 32 30     92%     30.35 30.35      
Nov 15 04:53 WSW 5 10 Clear CLR 33 30     88% 29   30.34 30.35      
Nov 15 03:53 Calm 10 Clear CLR 32 30     92%     30.34 30.34      
Nov 15 02:53 Calm 10 Clear CLR 31 30     96%     30.33 30.33      
Nov 15 01:53 Calm 10 Clear CLR 32 30     92%     30.34 30.34      
Nov 15 00:53 Calm 10 Clear CLR 33 29     85%     30.34 30.35      
Nov 14 23:53 Calm 10 Clear CLR 34 29     82%     30.36 30.36      
Nov 14 22:53 NW 5 10 Clear CLR 38 27     64% 34   30.37 30.37      
Nov 14 21:53 NW 6 10 Clear CLR 41 26     55% 37   30.38 30.38      
Nov 14 20:53 WNW 6 10 Clear CLR 40 28     62% 36   30.39 30.39      
Nov 14 19:53 W 6 10 Clear CLR 41 27     57% 37   30.39 30.39      
Nov 14 18:53 NW 5 10 Mostly Clear FEW250 44 24     45% 41   30.38 30.38      
Nov 14 17:53 WNW 7 10 Mostly Clear FEW250 46 23     40% 42   30.38 30.38      
Nov 14 16:53 WNW 8 10 Mostly Clear FEW250 49 20     31% 45   30.37 30.37      
Nov 14 15:53 WNW 10 10 Mostly Clear FEW250 51 19     28%     30.36 30.37      
Nov 14 14:53 NW 13 10 Mostly Clear FEW250 53 19     26%     30.37 30.37      
Nov 14 13:53 NNW 11 10 Mostly Clear FEW250 51 21     30%     30.39 30.39      
Nov 14 11:53 NW 14 10 Mostly Clear FEW250 48 25     40% 42   30.46 30.46      
Nov 14 10:53 NW 14 10 Mostly Clear FEW250 45 27     49% 39   30.49 30.5      
Nov 14 09:53 NW 7 10 Mostly Clear FEW250 42 27     55% 38   30.51 30.51      
Nov 14 08:53 NNW 9 10 Partly Cloudy SCT250 37 28     70% 30   30.51 30.51      
Nov 14 07:53 WNW 6 10 Partly Cloudy SCT250 34 29     82% 29   30.51 30.51      
Nov 14 06:53 WNW 5 10 Partly Cloudy SCT250 31 28     89% 26   30.5 30.5      
Nov 14 05:53 WNW 7 10 Mostly Clear FEW060 FEW250 32 28     85% 26   30.49 30.49      
Nov 14 04:53 WNW 8 10 Mostly Clear FEW250 32 29     88% 25   30.48 30.48      
Nov 14 03:53 WNW 7 10 Mostly Clear FEW250 33 29     85% 27   30.48 30.48      
Nov 14 02:53 WNW 9 10 Mostly Clear FEW250 33 29     85% 25   30.48 30.48      
Nov 14 01:53 W 8 10 Mostly Clear FEW250 33 29     85% 26   30.49 30.5      
Nov 14 00:53 WNW 5 10 Mostly Clear FEW040 FEW250 33 30     88% 29   30.48 30.48      
Nov 13 23:53 WNW 5 10 Partly Cloudy FEW050 SCT250 34 29     82% 30   30.49 30.49      
Nov 13 22:53 NNW 7 10 Partly Cloudy FEW050 SCT250 35 29     78% 29   30.5 30.5      
Nov 13 21:53 NNW 9 10 Mostly Clear FEW025 FEW055 36 29     75% 29   30.51 30.51      
Nov 13 20:53 NNW 10 10 Partly Cloudy SCT025 SCT055 37 29     72% 30   30.51 30.5      
Nov 13 20:30 NNW 13 10 Mostly Cloudy SCT025 BKN055 37 29     72% 29   30.5        
Nov 13 19:53 NNW 11 10 Cloudy BKN023 OVC055 38 29     70% 30   30.49 30.49      
Nov 13 18:53 NNW 11 10 Cloudy OVC023 38 30     73% 30   30.48 30.48      
Nov 13 17:53 NNW 10 10 Cloudy OVC024 38 31     76% 31   30.46 30.46      
Nov 13 16:53 NNW 14 10 Cloudy OVC024 39 31     72% 31   30.46 30.46      
Nov 13 15:53 NNW 13 10 Cloudy OVC025 39 31     72% 31   30.45 30.45      
Nov 13 14:53 NW 16 10 Cloudy OVC024 39 31     72% 30   30.45 30.45      
Nov 13 13:53 NNW 17 10 Cloudy OVC024 39 31     72% 30   30.44 30.44      
Nov 13 12:53 NNW 13 10 Cloudy OVC023 40 31     70% 32   30.45 30.45      
Nov 13 11:53   10 Cloudy OVC023 39 31     72%     30.46 30.46     0
Nov 13 10:53 NNW 16 10 Cloudy BKN026 OVC100 41 31     67% 33   30.46 30.45 0    
Nov 13 10:29   10 Cloudy BKN025 BKN075 OVC100 40 31     70%     30.46   0    
Nov 13 10:12   7 Light Snow and BKN025 OVC100 40 31     70%     30.44   0    
Nov 13 10:06   10 Light Snow BKN025 OVC100 39 31     72%     30.45   0    
Nov 13 09:53 NNW 16 10 Cloudy BKN023 OVC110 40 31     70% 31   30.45 30.45      
Nov 13 08:53   10 Cloudy BKN023 OVC110 40 32     73%     30.45 30.45      
Nov 13 07:53   10 Cloudy OVC020 39 32     76%     30.43 30.43      
Nov 13 06:53 NNW 15 10 Cloudy BKN022 OVC030 39 32     76% 31   30.43 30.43      
Nov 13 05:53 NNW 16 10 Cloudy OVC022 39 32     76% 30   30.37 30.37      
Nov 13 04:53 NNW 16 10 Cloudy OVC024 39 32     76% 30   30.36 30.37      
Nov 13 03:53   10 Cloudy OVC022 39 33     79%     30.34 30.35      
Nov 13 02:53 NNW 17 10 Cloudy OVC020 40 35     83% 31   30.33 30.33      
Nov 13 01:53   10 Cloudy OVC019 41 36     82%     30.3 30.3      
Nov 13 00:53   10 Cloudy OVC018 42 37     82%     30.32 30.32      
Nov 12 23:53   10 Cloudy OVC016 43 38     82%     30.32 30.32     0
Nov 12 22:53   10 Cloudy OVC016 44 39     82%     30.31 30.31      
Nov 12 21:53 NNW 16 10 Cloudy OVC015 45 41     86% 38   30.31 30.31      
Nov 12 20:53   10 Cloudy OVC015 46 42     86%     30.27 30.27   0  
Nov 12 19:53 NNW 14 10 Cloudy OVC014 47 43     86% 41   30.23 30.24      
Nov 12 18:53   10 Cloudy OVC011 47 45     93%     30.19 30.19 0    
Nov 12 18:17   10 Cloudy BKN011 BKN016 OVC022 48 46     93%     30.15        
Nov 12 17:53 NNW 14 10 Cloudy SCT011 OVC016 47 46     97% 41   30.13 30.14 0   0
Nov 12 16:53   10 Light Rain OVC016 48 45     89%     30.12 30.13 0    
Nov 12 16:22 NNW 16 10 Cloudy OVC016 49 45     86% 43   30.12        
Nov 12 15:53   10 Cloudy OVC014 50 46     86%     30.09 30.09      
Nov 12 14:53   10 Cloudy BKN010 OVC016 51 48     89%     30.04 30.04 0 0  
Nov 12 13:53 NNW 13 10 Light Rain OVC012 52 49     89%     30.05 30.05 0    
Nov 12 13:38   10 Cloudy OVC012 52 50     93%     30.03        
Nov 12 12:53 N 15 10 Cloudy BKN007 OVC012 52 51     97%     30.05 30.05      
Nov 12 12:10 NNW 15 10 Cloudy BKN007 OVC015 52 51     97%     30.03        
Nov 12 11:53 N 14 7 Cloudy BKN007 OVC015 52 51     97%     30.05 30.05 0   0
Nov 12 10:53 NNW 11 3 Rain and Fog/Mist BKN007 OVC024 52 51     97%     30.04 30.04 0    
Nov 12 10:40 N 9 3 Fog/Mist BKN007 OVC020 52 52     100%     30.04   0    
Nov 12 10:21 N 10 1.25 Rain and Fog/Mist BKN007 OVC014 52 51     97%     30.05   0    
Nov 12 09:53 NNW 14 2 Fog/Mist BKN007 OVC012 53 53     100%     30.03 30.03 0    
Nov 12 09:40 NNW 10 2 Fog/Mist BKN006 OVC012 53 53     100%     30.03   0    
Nov 12 08:53 N 9 0.25 Fog/Mist OVC004 53 53     100%     30 30      
Nov 12 08:27 N 9 2 Fog/Mist OVC004 53 53     100%     30        
Nov 12 07:59 NNE 10 2 Fog/Mist OVC004 53 52     96%     29.98        
Nov 12 07:53 NE 9 4 Fog/Mist OVC005 52 52     100%     29.97 29.98      
Nov 12 06:53 NE 8 6 Fog/Mist OVC005 53 53     100%     29.95 29.95      
Nov 12 06:42 N 10 6 Fog/Mist OVC005 53 53     100%     29.95        
Nov 12 05:53 NE 10 3 Fog/Mist OVC004 53 53     100%     29.91 29.91 0   0
Nov 12 04:53 N 8 3 Light Rain and Fog/Mist OVC003 54 54     100%     29.94 29.94 0    
Nov 12 04:47 N 9 3 Fog/Mist OVC004 54 54     100%     29.94   0    
Nov 12 03:53 N 7 6 Light Rain and Fog/Mist OVC006 54 54     100%     29.93 29.93 0    
Nov 12 02:53 E 9 5 Light Rain and Fog/Mist OVC005 54 54     100%     29.91 29.91 0 0  
Nov 12 01:53 ESE 10 6 Fog/Mist OVC005 54 54     100%     29.91 29.91      
Nov 12 00:53 E 9 8 Cloudy OVC007 53 53     100%     29.95 29.95 0    
Nov 11 23:53 ENE 8 5 Light Rain and Fog/Mist OVC005 53 53     100%     29.97 29.97 0   0
Nov 11 22:53 E 11 7 Light Drizzle OVC005 52 52     100%     29.99 29.99 0    
Nov 11 21:53 ENE 9 7 Light Rain OVC006 52 52     100%     30.02 30.02 0    
Nov 11 21:08 ENE 11 6 Light Rain and Fog/Mist BKN009 OVC015 52 51     97%     30.03   0    
Nov 11 20:53 ENE 10 10 Cloudy SCT009 OVC015 52 51     97%     30.03 30.03      
Nov 11 19:53 ENE 11 10 Cloudy SCT006 OVC021 52 51     97%     30.03 30.03      
Nov 11 19:41 ENE 13 10 Cloudy SCT006 OVC020 52 51     97%     30.03        
Nov 11 18:53 ENE 13 7 Cloudy OVC007 53 52     96%     30.04 30.04      
Nov 11 17:53 ENE 11 7 Cloudy BKN009 BKN030 OVC130 53 52     96%     30.03 30.03 0   0
Nov 11 17:42 ENE 13 6 Fog/Mist BKN009 BKN030 OVC130 53 52     96%     30.04   0    
Nov 11 17:17 ENE 10 4 Light Rain and Fog/Mist SCT009 BKN030 OVC130 53 52     96%     30.05   0    
Nov 11 16:53 ENE 10 6 Light Rain and Fog/Mist FEW003 BKN009 BKN030 OVC130 53 52     96%     30.06 30.06 0    
Nov 11 15:53 NE 10 4 Light Rain and Fog/Mist BKN008 OVC015 54 53     97%     30.06 30.06 0    
Nov 11 15:33 NE 10 4 Light Rain and Fog/Mist BKN008 BKN015 OVC060 54 54     100%     30.05   0    
Nov 11 15:17 NE 10 4 Thunderstorms and Rain and Fog/Mist FEW008 BKN014 BKN060 OVC130 54 53     97%     30.06   0    
Nov 11 14:58 NE 8 4 Thunderstorms and Rain and Fog/Mist BKN018 BKN026 OVC050 55 54     96%     30.06   0    
Nov 11 14:53 ENE 11 3 Light Rain and Fog/Mist BKN018 BKN028 OVC043 55 54     96%     30.06 30.06 0 0  
Nov 11 14:41 ENE 8 4 Light Rain and Fog/Mist BKN018 BKN028 OVC043 55 52     89%     30.07   0    
Nov 11 13:53 ENE 9 10 Light Rain BKN018 OVC048 57 50     77%     30.07 30.06 0    
Nov 11 13:10 E 10 10 Cloudy BKN018 OVC048 57 50     77%     30.1        
Nov 11 12:53 E 9 10 Cloudy FEW018 BKN048 OVC250 57 50     77%     30.1 30.1      
Nov 11 11:53 ENE 7 10 Cloudy FEW020 BKN045 OVC250 56 49     77%     30.15 30.15      
Nov 11 10:53 E 6 10 Cloudy FEW014 SCT050 BKN070 OVC250 54 47     77%     30.17 30.17      
Nov 11 10:42 ENE 9 10 Cloudy SCT014 BKN070 OVC250 53 47     80%     30.17        
Nov 11 09:53 E 8 10 Cloudy BKN012 OVC050 51 46     83%     30.19 30.19      
Nov 11 09:26 ENE 7 10 Cloudy BKN012 BKN050 OVC250 50 45     83%     30.2        
Nov 11 08:53 NE 8 10 Cloudy SCT017 BKN050 OVC250 50 45     83%     30.2 30.2      
Nov 11 08:42 ENE 10 10 Cloudy FEW017 BKN050 OVC250 49 45     86% 45   30.21        
Nov 11 07:53 NE 9 10 Cloudy BKN055 OVC250 49 44     83% 45   30.2 30.19      
Nov 11 06:53 NE 9 10 Cloudy BKN055 OVC250 48 45     89% 44   30.19 30.19      
Nov 11 05:53 ENE 7 10 Cloudy OVC055 48 44     86% 45   30.18 30.18      
Nov 11 04:53 NE 10 10 Cloudy BKN060 OVC090 48 45     89% 43   30.19 30.19      
Nov 11 03:53 NNE 7 10 Mostly Cloudy SCT060 BKN090 BKN250 47 45     93% 44   30.2 30.2      
Nov 11 02:53 N 3 10 Mostly Cloudy FEW055 FEW100 BKN250 47 45     93% 46   30.21 30.21      
Nov 11 01:53 NNE 3 10 Mostly Cloudy FEW060 BKN250 47 44     90% 46   30.2 30.21      
Nov 11 00:53 NNE 3 10 Mostly Cloudy FEW060 BKN250 46 44     93% 45   30.2 30.2      
Nov 10 23:53 NNE 6 10 Mostly Cloudy BKN065 BKN090 49 44     83% 46   30.22 30.22      
Nov 10 22:53 E 3 10 Mostly Cloudy BKN065 BKN090 48 44     86% 47   30.24 30.24      
Nov 10 21:53 E 5 10 Mostly Cloudy BKN065 BKN110 48 43     83% 46   30.25 30.25      
Nov 10 20:53 ENE 6 10 Mostly Cloudy FEW015 BKN070 BKN110 48 42     80% 45   30.25 30.25      
Nov 10 19:53 ENE 7 10 Mostly Cloudy FEW015 BKN075 BKN110 48 42     80% 45   30.27 30.27      
Nov 10 18:53 3 10 Mostly Cloudy FEW015 SCT080 BKN110 BKN250 48 43     83% 47   30.27 30.27      
Nov 10 17:53 NNE 8 10 Mostly Cloudy FEW013 SCT075 BKN110 BKN250 48 42     80% 44   30.26 30.26     0
Nov 10 16:53 NNE 10 10 Cloudy FEW014 BKN075 BKN120 OVC250 49 43     80% 45   30.26 30.26      
Nov 10 15:53 N 7 10 Cloudy FEW020 BKN070 OVC120 49 42     77% 46   30.28 30.28      
Nov 10 14:53 NNE 9 10 Cloudy FEW026 BKN080 OVC130 49 41     74% 45   30.3 30.3 0 0  
Nov 10 13:53 NNE 8 10 Cloudy FEW024 FEW070 BKN090 OVC130 48 42     80% 44   30.32 30.32 0    
Nov 10 12:53 NNE 6 10 Light Rain FEW025 FEW065 BKN100 OVC160 49 41     74% 46   30.34 30.34 0    
Nov 10 11:53 NNE 9 10 Cloudy FEW035 FEW065 BKN100 OVC160 50 40     68%     30.36 30.36 0   0
Nov 10 10:53 NNE 10 10 Light Rain FEW036 SCT065 BKN100 OVC150 48 41     77% 43   30.39 30.39 0    
Nov 10 09:53 NE 11 10 Mostly Cloudy SCT120 BKN160 BKN250 49 38     66% 44   30.4 30.4      
Nov 10 08:53 NE 14 10 Mostly Cloudy FEW065 SCT120 BKN160 BKN250 50 38     63%     30.4 30.4   0  
Nov 10 07:53 NE 14 10 Mostly Cloudy FEW034 FEW060 SCT120 BKN150 BKN250 47 37     68% 41   30.39 30.39 0    
Nov 10 06:53 NNE 13 10 Mostly Cloudy BKN120 BKN150 BKN250 47 36     65% 41   30.37 30.37      
Nov 10 05:53 NNE 11 10 Mostly Cloudy BKN120 BKN150 BKN250 47 38     71% 42   30.36 30.36      
Nov 10 04:53 NNE 11 10 Mostly Cloudy SCT130 BKN160 BKN250 47 41     80% 42   30.35 30.35      
Nov 10 03:53 NNE 8 10 Mostly Cloudy SCT130 BKN170 BKN250 47 41     80% 43   30.34 30.34      
Nov 10 02:53 N 9 10 Mostly Cloudy SCT150 BKN250 48 42     80% 44   30.37 30.37      
Nov 10 01:53 N 8 10 Mostly Cloudy SCT160 BKN250 49 42     77% 45   30.38 30.37      
Nov 10 00:53 N 8 10 Mostly Cloudy SCT120 SCT160 BKN250 49 43     80% 45   30.35 30.35      
Nov 09 23:53 N 8 10 Mostly Cloudy FEW120 SCT160 BKN250 49 44     83% 45   30.34 30.35      
Nov 09 22:53 N 8 10 Mostly Cloudy SCT120 BKN250 49 46     90% 45   30.35 30.35      
Nov 09 21:53 N 7 10 Mostly Cloudy SCT120 BKN250 50 46     86%     30.34 30.34      
Nov 09 20:53 N 6 10 Partly Cloudy FEW120 SCT250 51 47     86%     30.33 30.33      
Nov 09 19:53 NNE 7 10 Partly Cloudy FEW150 SCT250 51 47     86%     30.31 30.32      
Nov 09 18:53 N 9 10 Partly Cloudy FEW150 SCT250 53 47     80%     30.29 30.29      
Nov 09 17:53 NNE 11 10 Mostly Cloudy FEW030 FEW150 BKN250 54 47     77%     30.26 30.26     0
Nov 09 16:53 N 13 10 Mostly Cloudy FEW025 SCT150 BKN250 56 49     77%     30.23 30.23      
Nov 09 15:53   10 Mostly Cloudy SCT015 SCT023 BKN150 BKN250 56 49     77%     30.22 30.21      
Nov 09 15:31 NNE 15 10 Mostly Cloudy SCT012 SCT025 BKN150 BKN250 55 51     86%     30.21        
Nov 09 14:53   10 Cloudy BKN012 OVC018 54 50     86%     30.21 30.21   0  
Nov 09 13:53   10 Cloudy BKN012 OVC018 54 51     90%     30.2 30.2      
Nov 09 12:53   7 Cloudy SCT008 BKN011 OVC018 54 52     93%     30.2 30.19 0    
Nov 09 12:43   7 Cloudy SCT008 BKN011 OVC018 54 52     93%     30.2   0    
Nov 09 11:53   4 Rain and Fog/Mist BKN007 OVC012 54 53     97%     30.2 30.2 0   0
Nov 09 11:27   3 Rain and Fog/Mist BKN008 OVC013 54 53     97%     30.21   0    
Nov 09 10:53   10 Cloudy BKN010 OVC016 55 53     93%     30.2 30.2 0    
Nov 09 09:53   10 Cloudy BKN011 OVC016 56 54     93%     30.19 30.19 0    
Nov 09 08:53   10 Cloudy BKN012 OVC018 56 54     93%     30.17 30.17 0 0  
Nov 09 08:38 N 14 10 Light Rain BKN012 OVC018 56 54     93%     30.17   0    
Nov 09 07:53   10 Light Rain BKN009 OVC015 56 54     93%     30.13 30.13 0    
Nov 09 06:53   10 Cloudy BKN009 OVC015 56 55     97%     30.11 30.11 0    
Nov 09 06:23 N 11 10 Light Rain BKN008 BKN015 OVC060 56 55     97%     30.11   0    
Nov 09 05:53 N 10 7 Light Rain SCT013 BKN020 OVC065 56 56     100%     30.1 30.09 0   0
Nov 09 05:27   3 Heavy Rain and Fog/Mist BKN008 BKN013 OVC027 57 56     96%     30.08   0    
Nov 09 04:53 NNW 13 10 Cloudy BKN010 OVC027 57 56     96%     30.05 30.04 0    
Nov 09 04:35 N 14 10 Light Rain BKN011 OVC025 58 56     93%     30.03   0    
Nov 09 03:53   10 Cloudy BKN008 OVC018 59 58     96%     30.02 30.02      
Nov 09 02:53   7 Cloudy BKN008 OVC017 60 60     100%     30 30 0 0  
Nov 09 02:41   5 Fog/Mist BKN008 OVC017 61 60     97%     30.02   0    
Nov 09 02:05 NNW 13 1 Thunderstorms and Rain and Fog/Mist BKN004 OVC012 62 62     100%     30.02   0    
Nov 09 01:53 N 11 1 Light Rain and Fog/Mist BKN004 OVC010 62 62     100%     30 30 0    
Nov 09 00:53 N 9 1 Light Rain and Fog/Mist OVC004 64 64     100%     29.99 29.99 0    
Nov 08 23:53 NNE 8 1 Fog/Mist OVC003 64 64     100%     29.99 29.99      
Nov 08 22:53 NNE 7 1 Fog/Mist OVC004 65 65     100%     30 30      
Nov 08 21:53 N 6 1 Fog/Mist OVC004 66 65     96%     30.01 30.01      
Nov 08 21:05 N 6 3 Fog/Mist OVC005 66 65     96%     30        
Nov 08 20:53 NNE 6 7 Cloudy OVC006 66 65     96%     30 29.99      
Nov 08 19:53 NNE 7 7 Cloudy OVC008 67 65     93%     29.99 29.98      
Nov 08 18:53 7 7 Cloudy OVC008 67 65     93%     29.97 29.97      
Nov 08 17:53 ESE 6 7 Cloudy OVC009 66 65     96%     29.97 29.96      
Nov 08 16:53 NE 6 7 Cloudy OVC009 67 65     93%     29.96 29.96      
Nov 08 15:53 NNE 8 7 Cloudy OVC010 67 65     93%     29.96 29.96      
Nov 08 14:53 ENE 6 7 Cloudy OVC010 67 65     93%     29.96 29.96      
Nov 08 14:40 NE 8 7 Cloudy OVC010 68 65     90%     29.96        
Nov 08 13:53 E 7 7 Cloudy OVC009 67 64     90%     29.96 29.96      
Nov 08 12:53 SE 7 7 Cloudy OVC008 67 65     93%     29.98 29.98      
Nov 08 11:53 E 9 7 Cloudy OVC008 66 64     93%     30.01 30.01      
Nov 08 10:53 ENE 10 3 Fog/Mist OVC006 66 64     93%     30.03 30.03      
Nov 08 09:53 NE 8 2 Fog/Mist OVC005 65 65     100%     30.04 30.03      
Nov 08 09:44 NNE 9 2 Fog/Mist OVC005 65 65     100%     30.03        
Nov 08 09:24 NNE 9 1.5 Fog/Mist OVC003 65 65     100%     30.04        
Nov 08 09:02 NNE 9 0.5 Fog/Mist OVC003 65 65     100%     30.03        
Nov 08 08:53 NNE 9 0.25 Fog/Mist OVC003 65 65     100%     30.03 30.03      
Nov 08 08:23 N 9 0.25 Fog/Mist OVC003 65 65     100%     30.02        
Nov 08 07:53 N 9 0 Fog/Mist OVC002 65 65     100%     30.01 30.01      
Nov 08 07:35 N 9 0 Fog OVC002 65 65     100%     30        
Nov 08 06:53 N 6 0 Fog OVC002 65 65     100%     29.98 29.98      
Nov 08 06:08 NNE 9 0 Fog OVC002 66 66     100%     29.98        
Nov 08 05:53 NE 7 0.25 Fog OVC002 66 66     100%     29.98 29.97     0
Nov 08 04:53 NE 8 0.5 Fog/Mist OVC002 67 67     100%     29.96 29.96 0    
Nov 08 03:53 N 10 0.5 Fog/Mist OVC002 68 68     100%     29.97 29.96      
Nov 08 03:20 NE 10 1 Fog/Mist OVC003 69 69     100%     29.95        
Nov 08 02:53 NE 8 7 Cloudy OVC004 69 69     100%     29.96 29.96      
Nov 08 01:53 NNE 8 7 Cloudy OVC004 70 70     100%     29.95 29.95      
Nov 08 01:13 NE 9 7 Cloudy OVC004 70 70     100%     29.95        
Nov 08 00:53 NNE 9 7 Cloudy OVC005 70 70     100%     29.95 29.95      
Nov 07 23:53 NNE 10 7 Cloudy OVC006 71 70     96%   72 29.94 29.94     0
Nov 07 22:53 N 9 7 Cloudy BKN007 OVC060 73 72     96%   75 29.94 29.94      
Nov 07 22:34 NNE 8 7 Mostly Cloudy SCT008 SCT025 BKN060 BKN130 73 72     96%   75 29.94        
Nov 07 22:01 N 10 10 Mostly Cloudy BKN008 BKN030 75 73     94%   77 29.95        
Nov 07 21:53 NNE 8 10 Mostly Cloudy FEW009 BKN035 BKN120 BKN250 75 71     88%   76 29.95 29.94      
Nov 07 20:53 Calm 10 Mostly Cloudy FEW010 FEW038 SCT120 BKN250 72 69     91%   73 29.9 29.89 0 0  
Nov 07 20:42 W 5 10 Mostly Cloudy FEW010 SCT038 SCT120 BKN250 72 69     91%   73 29.89   0    
Nov 07 19:53 S 5 7 Thunderstorms and Rain FEW013 SCT038 SCT100 BKN250 76 75     97%   78 29.9 29.9 0    
Nov 07 19:21 3 7 Thunderstorms and Rain BKN037 BKN250 77 75     94%   79 29.89   0    
Nov 07 18:53 S 6 7 Mostly Cloudy BKN038 BKN250 78 73     85%   80 29.89 29.88      
Nov 07 17:53 S 5 7 Partly Cloudy SCT038 SCT250 78 72     82%   79 29.87 29.87      
Nov 07 16:53 SE 15 7 Mostly Cloudy BKN038 BKN250 82 75     79%   89 29.86 29.85      
Nov 07 15:53 W 5 10 Partly Cloudy SCT038 SCT250 88 73     61%   96 29.84 29.84      
Nov 07 14:53 7 10 Mostly Cloudy BKN035 BKN250 89 75     63%   99 29.85 29.84      
Nov 07 13:53 W 7 7 Partly Cloudy SCT031 SCT250 88 75     66%   98 29.85 29.85      
Nov 07 12:53 W 9 7 Mostly Cloudy BKN031 BKN250 87 75     68%   97 29.88 29.87      
Nov 07 11:53 WNW 9 10 Partly Cloudy SCT025 SCT250 86 75     70%   95 29.91 29.9      
May 15 10:53 SW 5 10 Mostly Cloudy FEW030 BKN180 BKN250 83 68     61%   86 29.99 29.99      
May 15 05:53 Calm 7 Fog FEW008 FEW250 66 66     100%     29.92 29.91      
May 14 16:53   10 Mostly Cloudy FEW065 BKN250 90 68     49%   94 29.91 29.91      
May 11 14:53 S 13 10 Partly Cloudy SCT050 89 65     45%   91 29.95 29.95      
Jun 10 20:53 SE 15 10 Mostly Clear FEW035 79 70     74%   82 29.89 29.89      
Jun 09 22:53 S 3 10 Mostly Cloudy FEW050 SCT180 BKN250 75 65     71%   76 29.91 29.91      
Jun 09 06:53 Calm 10 Partly Cloudy FEW070 SCT250 69 65     87%     29.91 29.91      
Jun 08 18:53 NE 8 10 Mostly Clear FEW070 FEW250 86 60     42%   86 29.86 29.86      
Jun 06 09:53 NNW 7 10 Mostly Clear FEW020 81 73     77%   86 29.78 29.78      
Jun 06 06:53 WNW 3 10 Mostly Clear FEW020 FEW070 FEW250 73 71     94%   74 29.77 29.77      
Notice The following observation data may not be complete
Jun 05 18:23   0.5 Thunderstorms and Heavy Rain and Fog/Mist SCT024 SCT042 BKN070 BKN130 BKN250          %         0